GW3593 Weather Reports


time (UTC)temp
C
wind
direction
speed
KPH
gust
KPH
rain 1hr
cm
rain 24hr
cm
rain mn
cm
humidity
%
barometer
mb
20260906040237 23 89 0.0 0.0 0.00 0.00 0.00 99 1014.9
20260906035732 23 88 0.0 0.0 0.00 0.00 0.00 99 1014.8
20260906035228 23 90 0.0 0.0 0.00 0.00 0.00 99 1014.9
20260906034727 23 91 0.0 0.0 0.00 0.00 0.00 99 1014.8
20260906034223 23 90 0.0 0.0 0.00 0.00 0.00 99 1014.5
20260906033718 23 93 0.0 0.0 0.00 0.00 0.00 99 1014.5
20260906033212 23 94 0.0 0.0 0.00 0.00 0.00 98 1014.5
20260906032709 23 87 0.0 0.0 0.00 0.00 0.00 98 1014.5
20260906032209 23 87 0.0 0.0 0.00 0.00 0.00 98 1014.4
20260906031704 23 84 0.0 0.0 0.00 0.00 0.00 98 1014.6
20260906031159 23 90 0.0 0.0 0.00 0.00 0.00 98 1014.6
20260906030700 23 90 0.0 0.0 0.00 0.00 0.00 98 1014.4
20260906030155 23 90 0.0 0.0 0.00 0.00 0.00 98 1014.5
20260906025654 23 90 0.0 0.0 0.00 0.00 0.00 98 1014.4
20260906025153 23 90 0.0 0.0 0.00 0.00 0.00 98 1014.2
20260906024648 23 90 0.0 0.0 0.00 0.00 0.00 97 1014.4
20260906024147 24 90 0.0 0.0 0.00 0.00 0.00 97 1014.0
20260906023643 24 88 0.0 0.0 0.00 0.00 0.00 97 1014.1
20260906023143 24 87 0.0 0.0 0.00 0.00 0.00 97 1014.0
20260906022638 24 88 0.0 0.0 0.00 0.00 0.00 97 1014.1
20260906022135 24 88 0.0 0.0 0.00 0.00 0.00 97 1014.1
20260906021630 24 87 0.0 0.0 0.00 0.00 0.00 96 1014.0
20260906021128 24 87 0.0 0.0 0.00 0.00 0.00 96 1013.8
20260906020628 24 86 0.0 0.0 0.00 0.00 0.00 96 1013.8
20260906020123 24 93 0.0 0.0 0.00 0.00 0.00 96 1013.7
20260906015619 25 86 0.0 0.0 0.00 0.00 0.00 96 1013.9
20260906015117 25 63 0.0 0.0 0.00 0.00 0.00 96 1013.7
20260906014612 25 61 0.0 0.0 0.00 0.00 0.00 95 1013.9
20260906014109 25 60 0.0 0.0 0.00 0.00 0.00 95 1013.6
20260906013603 25 60 0.0 0.0 0.00 0.00 0.00 95 1013.7
20260906013058 25 60 0.0 0.0 0.00 0.00 0.00 95 1013.7
20260906012553 25 60 0.0 0.0 0.00 0.00 0.00 95 1013.6
20260906012053 25 59 0.0 0.0 0.00 0.00 0.00 94 1013.7
20260906011549 25 59 0.0 0.0 0.00 0.00 0.00 94 1013.6
20260906011048 25 59 0.0 0.0 0.00 0.00 0.00 94 1013.5
20260906010544 25 59 0.0 0.0 0.00 0.00 0.00 94 1013.6
20260906010040 26 59 0.0 0.0 0.00 0.00 0.00 93 1013.4
20260906005539 26 59 0.0 0.0 0.00 0.00 0.00 93 1013.5
20260906005039 26 59 0.0 0.0 0.00 0.00 0.00 93 1013.3
20260906004538 26 59 0.0 0.0 0.00 0.00 0.00 92 1013.4
20260906004033 26 59 0.0 0.0 0.00 0.00 0.00 92 1013.3
20260906003529 26 59 0.0 0.0 0.00 0.00 0.00 92 1013.2
20260906003025 26 59 0.0 0.0 0.00 0.00 0.00 91 1013.3
20260906002525 26 59 0.0 0.0 0.00 0.00 0.00 91 1013.3
20260906002019 27 59 0.0 0.0 0.00 0.00 0.00 91 1013.3
20260906001515 27 59 0.0 0.0 0.00 0.00 0.00 90 1013.2
20260906001009 27 59 0.0 0.0 0.00 0.00 0.00 89 1013.3
20260906000506 27 59 0.0 0.0 0.00 0.00 0.00 89 1013.3
20260906000000 27 59 0.0 0.0 0.00 0.00 0.00 88 1013.5
20260905235459 28 59 0.0 0.0 0.00 0.00 0.00 87 1013.5
20260905234955 28 59 0.0 0.0 0.00 0.00 0.00 87 1013.5
20260905234451 28 59 0.0 0.0 0.00 0.00 0.00 86 1013.5
20260905233950 28 59 0.0 0.0 0.00 0.00 0.00 85 1013.3
20260905233446 28 59 0.0 0.0 0.00 0.00 0.00 84 1013.5
20260905232944 28 59 0.0 0.0 0.00 0.00 0.00 83 1013.4
20260905232441 29 59 0.0 0.0 0.00 0.00 0.00 82 1013.3
20260905231936 30 59 0.0 0.0 0.00 0.00 0.00 79 1013.3
20260905231432 30 59 0.0 0.0 0.00 0.00 0.00 79 1013.5
20260905230928 30 59 0.0 0.0 0.00 0.00 0.00 77 1013.2
20260905230426 30 59 0.0 0.0 0.00 0.00 0.00 76 1013.5
20260905225925 30 59 0.0 0.0 0.00 0.00 0.00 76 1013.1
20260905225420 31 59 0.0 0.0 0.00 0.00 0.00 74 1013.3
20260905224915 31 59 0.0 0.0 0.00 0.00 0.00 72 1013.3
20260905224411 31 59 0.0 0.0 0.00 0.00 0.00 72 1013.1
20260905223905 32 59 0.0 0.0 0.00 0.00 0.00 69 1013.2
20260905223403 32 59 0.0 0.0 0.00 0.00 0.00 68 1013.2
20260905222903 33 59 0.0 0.0 0.00 0.00 0.00 67 1013.3
20260905222402 33 60 0.0 1.6 0.00 0.00 0.00 65 1013.3
20260905221858 33 60 0.0 3.2 0.00 0.00 0.00 65 1013.1
20260905221355 33 60 0.0 1.6 0.00 0.00 0.00 69 1013.3
20260905220850 33 59 0.0 1.6 0.00 0.00 0.00 64 1013.3
20260905220346 33 62 0.0 1.6 0.00 0.00 0.00 65 1013.3
20260905215845 33 63 1.6 1.6 0.00 0.00 0.00 63 1013.3
20260905215342 34 62 0.0 0.0 0.00 0.00 0.00 62 1013.3
20260905214838 35 62 0.0 0.0 0.00 0.00 0.00 64 1013.3
20260905214332 33 61 0.0 1.6 0.00 0.00 0.00 62 1013.3
20260905213827 33 61 0.0 1.6 0.00 0.00 0.00 63 1013.5
20260905213323 33 60 1.6 1.6 0.00 0.00 0.00 63 1013.4
20260905212818 33 60 0.0 1.6 0.00 0.00 0.00 63 1013.5
20260905212318 35 60 0.0 0.0 0.00 0.00 0.00 56 1013.5
20260905211818 34 59 0.0 0.0 0.00 0.00 0.00 60 1013.6
20260905211313 35 58 0.0 1.6 0.00 0.00 0.00 60 1013.5
20260905210810 35 95 0.0 0.0 0.00 0.00 0.00 48 1013.5
20260905210309 36 72 0.0 3.2 0.00 0.00 0.00 50 1013.6
20260905205808 36 87 0.0 1.6 0.00 0.00 0.00 47 1013.6
20260905205306 37 69 1.6 1.6 0.00 0.00 0.00 46 1013.5
20260905204802 36 82 0.0 1.6 0.00 0.00 0.00 47 1013.7
20260905204259 36 93 0.0 1.6 0.00 0.00 0.00 46 1013.7
20260905203757 36 354 3.2 3.2 0.00 0.00 0.00 53 1013.7
20260905203253 36 67 1.6 3.2 0.00 0.00 0.00 49 1013.9
20260905202749 36 45 1.6 3.2 0.00 0.00 0.00 50 1014.0
20260905202244 35 72 0.0 4.8 0.00 0.00 0.00 50 1013.9
20260905201739 36 80 0.0 3.2 0.00 0.00 0.00 50 1014.0
20260905201234 36 64 0.0 1.6 0.00 0.00 0.00 51 1013.9
20260905200729 36 64 1.6 1.6 0.00 0.00 0.00 51 1014.1
20260905200225 36 123 1.6 3.2 0.00 0.00 0.00 51 1014.1
20260905195724 36 5 3.2 3.2 0.00 0.00 0.00 52 1014.4
20260905195224 36 95 1.6 1.6 0.00 0.00 0.00 51 1014.4
20260905194720 36 100 0.0 3.2 0.00 0.00 0.00 53 1014.5
20260905194220 36 55 1.6 3.2 0.00 0.00 0.00 49 1014.3
20260905193719 36 138 3.2 3.2 0.00 0.00 0.00 49 1014.4
20260905193214 36 50 1.6 3.2 0.00 0.00 0.00 53 1014.7
20260905192710 36 81 0.0 1.6 0.00 0.00 0.00 51 1014.7
20260905192206 36 49 0.0 3.2 0.00 0.00 0.00 50 1014.8
20260905191705 36 11 3.2 3.2 0.00 0.00 0.00 53 1014.8
20260905191203 36 57 4.8 4.8 0.00 0.00 0.00 51 1015.3
20260905190702 36 70 0.0 1.6 0.00 0.00 0.00 51 1015.2
20260905190201 36 62 0.0 3.2 0.00 0.00 0.00 51 1015.4
20260905185700 36 323 4.8 4.8 0.00 0.00 0.00 52 1015.3
20260905185156 36 42 1.6 3.2 0.00 0.00 0.00 53 1015.4
20260905184655 35 73 0.0 3.2 0.00 0.00 0.00 55 1015.5
20260905184154 35 73 0.0 1.6 0.00 0.00 0.00 54 1015.3
20260905183654 35 60 1.6 3.2 0.00 0.00 0.00 55 1015.5
20260905183148 36 344 3.2 8.0 0.00 0.00 0.00 53 1015.8
20260905182648 36 358 3.2 4.8 0.00 0.00 0.00 54 1015.6
20260905182148 36 18 1.6 3.2 0.00 0.00 0.00 52 1015.7
20260905181643 35 66 1.6 1.6 0.00 0.00 0.00 54 1016.1
20260905181142 35 63 0.0 3.2 0.00 0.00 0.00 56 1015.8
20260905180637 35 53 1.6 3.2 0.00 0.00 0.00 56 1016.1
20260905180132 36 9 4.8 8.0 0.00 0.00 0.00 54 1016.1
20260905175632 36 77 3.2 4.8 0.00 0.00 0.00 53 1016.2
20260905175127 35 20 1.6 1.6 0.00 0.00 0.00 56 1015.9
20260905174623 35 64 0.0 3.2 0.00 0.00 0.00 56 1016.1
20260905174118 35 61 1.6 1.6 0.00 0.00 0.00 56 1016.3
20260905173614 35 51 1.6 3.2 0.00 0.00 0.00 56 1015.7
20260905173109 35 60 0.0 3.2 0.00 0.00 0.00 56 1015.9
20260905172608 35 71 0.0 0.0 0.00 0.00 0.00 57 1015.9
20260905172103 33 67 3.2 3.2 0.00 0.00 0.00 60 1016.2
20260905171600 34 53 0.0 3.2 0.00 0.00 0.00 59 1016.3
20260905171056 35 64 1.6 1.6 0.00 0.00 0.00 59 1016.4
20260905170552 35 64 1.6 1.6 0.00 0.00 0.00 60 1016.5
20260905170047 33 57 1.6 3.2 0.00 0.00 0.00 62 1016.6
20260905165542 33 63 1.6 3.2 0.00 0.00 0.00 59 1016.5
20260905165037 33 51 1.6 3.2 0.00 0.00 0.00 63 1016.5
20260905164537 33 62 1.6 3.2 0.00 0.00 0.00 61 1016.7
20260905164032 33 47 1.6 1.6 0.00 0.00 0.00 64 1016.8
20260905163528 33 63 3.2 3.2 0.00 0.00 0.00 61 1016.9
20260905163024 33 60 1.6 3.2 0.00 0.00 0.00 63 1016.8
20260905162520 33 60 0.0 1.6 0.00 0.00 0.00 64 1016.8
20260905162014 32 50 1.6 3.2 0.00 0.00 0.00 70 1017.0
20260905161514 32 54 1.6 1.6 0.00 0.00 0.00 66 1016.8
20260905161012 33 51 1.6 3.2 0.00 0.00 0.00 67 1017.2
20260905160506 34 62 0.0 1.6 0.00 0.00 0.00 66 1017.0
20260905160006 33 62 1.6 1.6 0.00 0.00 0.00 64 1017.1
20260905155505 32 61 1.6 3.2 0.00 0.00 0.00 65 1017.0
20260905155004 32 55 1.6 1.6 0.00 0.00 0.00 69 1017.0
20260905154459 33 56 1.6 1.6 0.00 0.00 0.00 66 1017.0
20260905153955 32 64 1.6 3.2 0.00 0.00 0.00 67 1017.1
20260905153451 32 72 0.0 1.6 0.00 0.00 0.00 74 1017.1
20260905152950 32 72 0.0 1.6 0.00 0.00 0.00 74 1017.1
20260905152450 32 74 0.0 1.6 0.00 0.00 0.00 76 1017.1
20260905151945 32 72 0.0 1.6 0.00 0.00 0.00 76 1017.0
20260905151441 31 85 0.0 0.0 0.00 0.00 0.00 79 1017.2
20260905150936 30 86 0.0 0.0 0.00 0.00 0.00 77 1017.2
20260905150436 31 80 0.0 0.0 0.00 0.00 0.00 81 1017.2
20260905145932 30 80 0.0 0.0 0.00 0.00 0.00 81 1017.1
20260905145427 31 77 0.0 0.0 0.00 0.00 0.00 79 1017.4
20260905144926 30 85 0.0 0.0 0.00 0.00 0.00 75 1017.2
20260905144422 30 83 0.0 0.0 0.00 0.00 0.00 77 1017.2
20260905143921 29 83 0.0 0.0 0.00 0.00 0.00 83 1017.1
20260905143415 29 81 0.0 0.0 0.00 0.00 0.00 82 1017.3
20260905142914 27 90 0.0 0.0 0.00 0.00 0.00 81 1017.4
20260905142413 27 85 0.0 0.0 0.00 0.00 0.00 89 1017.4
20260905141909 27 88 0.0 0.0 0.00 0.00 0.00 86 1017.2
20260905141404 26 96 0.0 0.0 0.00 0.00 0.00 89 1017.5
20260905140900 26 84 0.0 0.0 0.00 0.00 0.00 92 1017.3
20260905140355 26 86 0.0 0.0 0.00 0.00 0.00 93 1017.2
20260905135854 25 88 0.0 0.0 0.00 0.00 0.00 93 1017.5
20260905135350 25 83 0.0 0.0 0.00 0.00 0.00 95 1017.3
20260905134845 24 85 0.0 0.0 0.00 0.00 0.00 98 1017.7
20260905134343 24 85 0.0 0.0 0.00 0.00 0.00 99 1017.5
20260905133838 23 85 0.0 0.0 0.00 0.00 0.00 99 1017.5
20260905133334 23 85 0.0 0.0 0.00 0.00 0.00 99 1017.3
20260905132833 23 85 0.0 0.0 0.00 0.00 0.00 99 1017.6
20260905132329 23 85 0.0 0.0 0.00 0.00 0.00 99 1017.4
20260905131828 23 85 0.0 0.0 0.00 0.00 0.00 99 1017.7
20260905131324 23 83 0.0 0.0 0.00 0.00 0.00 99 1017.6
20260905130819 22 90 0.0 0.0 0.00 0.00 0.00 99 1017.6
20260905130318 22 90 0.0 0.0 0.00 0.00 0.00 99 1017.8
20260905125813 22 91 0.0 0.0 0.00 0.00 0.00 99 1017.5
20260905125308 22 91 0.0 0.0 0.00 0.00 0.00 99 1017.5
20260905124804 22 85 0.0 0.0 0.00 0.00 0.00 99 1017.7
20260905124300 22 85 0.0 0.0 0.00 0.00 0.00 99 1017.3
20260905123755 22 86 0.0 0.0 0.00 0.00 0.00 99 1017.4
20260905123252 22 85 0.0 0.0 0.00 0.00 0.00 99 1017.3
20260905122752 22 85 0.0 0.0 0.00 0.00 0.00 99 1017.5
20260905122251 22 92 0.0 0.0 0.00 0.00 0.00 99 1017.3
20260905121746 22 93 0.0 0.0 0.00 0.00 0.00 99 1017.1
20260905121243 22 94 0.0 0.0 0.00 0.00 0.00 99 1017.1
20260905120741 22 89 0.0 0.0 0.00 0.00 0.00 99 1017.4
20260905120236 22 89 0.0 0.0 0.00 0.00 0.00 99 1017.0
20260905115732 21 89 0.0 0.0 0.00 0.00 0.00 99 1016.9
20260905115231 21 94 0.0 0.0 0.00 0.00 0.00 99 1016.9
20260905114726 21 89 0.0 0.0 0.00 0.00 0.00 99 1016.9
20260905114224 21 91 0.0 0.0 0.00 0.00 0.00 99 1016.7
20260905113724 21 91 0.0 0.0 0.00 0.00 0.00 99 1016.8
20260905113220 21 91 0.0 0.0 0.00 0.00 0.00 99 1016.6
20260905112720 21 92 0.0 0.0 0.00 0.00 0.00 99 1016.7
20260905112215 21 87 0.0 0.0 0.00 0.00 0.00 99 1016.6
20260905111715 21 90 0.0 0.0 0.00 0.00 0.00 99 1016.9
20260905111215 21 91 0.0 0.0 0.00 0.00 0.00 99 1016.4
20260905110714 21 91 0.0 0.0 0.00 0.00 0.00 99 1016.6
20260905110209 21 91 0.0 0.0 0.00 0.00 0.00 99 1016.2
20260905105705 21 91 0.0 0.0 0.00 0.00 0.00 99 1016.1
20260905105203 21 91 0.0 0.0 0.00 0.00 0.00 99 1016.1
20260905104658 21 85 0.0 0.0 0.00 0.00 0.00 99 1016.2
20260905104154 21 91 0.0 0.0 0.00 0.00 0.00 99 1016.2
20260905103649 21 91 0.0 0.0 0.00 0.00 0.00 99 1016.3
20260905103145 21 91 0.0 0.0 0.00 0.00 0.00 99 1015.8
20260905102640 21 91 0.0 0.0 0.00 0.00 0.00 99 1015.9
20260905102137 21 91 0.0 0.0 0.00 0.00 0.00 99 1016.1
20260905101635 21 92 0.0 0.0 0.00 0.00 0.00 99 1016.1
20260905101133 21 89 0.0 0.0 0.00 0.00 0.00 99 1016.1
20260905100630 21 86 0.0 0.0 0.00 0.00 0.00 99 1016.1
20260905100126 21 84 0.0 0.0 0.00 0.00 0.00 99 1015.7
20260905095625 21 89 0.0 0.0 0.00 0.00 0.00 99 1015.9
20260905095120 21 89 0.0 0.0 0.00 0.00 0.00 99 1015.7
20260905094615 21 93 0.0 0.0 0.00 0.00 0.00 99 1015.8
20260905094114 21 92 0.0 0.0 0.00 0.00 0.00 99 1015.9
20260905093614 21 92 0.0 0.0 0.00 0.00 0.00 99 1016.1
20260905093111 21 94 0.0 0.0 0.00 0.00 0.00 99 1016.1
20260905092610 21 89 0.0 0.0 0.00 0.00 0.00 99 1015.9
20260905092107 21 92 0.0 0.0 0.00 0.00 0.00 99 1015.7
20260905091606 21 93 0.0 0.0 0.00 0.00 0.00 99 1015.9
20260905091101 21 93 0.0 0.0 0.00 0.00 0.00 99 1015.9
20260905090600 21 94 0.0 0.0 0.00 0.00 0.00 99 1016.1
20260905090056 21 90 0.0 0.0 0.00 0.00 0.00 99 1016.1
20260905085554 21 88 0.0 0.0 0.00 0.00 0.00 99 1016.2
20260905085050 21 91 0.0 0.0 0.00 0.00 0.00 99 1015.8
20260905084549 21 91 0.0 0.0 0.00 0.00 0.00 99 1015.9
20260905084044 21 84 0.0 0.0 0.00 0.00 0.00 99 1015.9
20260905083540 21 89 0.0 0.0 0.00 0.00 0.00 99 1015.7
20260905083036 22 96 0.0 0.0 0.00 0.00 0.00 99 1015.9
20260905082531 21 93 0.0 0.0 0.00 0.00 0.00 99 1015.8
20260905082027 21 92 0.0 0.0 0.00 0.00 0.00 99 1015.8
20260905081527 22 90 0.0 0.0 0.00 0.00 0.00 99 1015.7
20260905081026 22 91 0.0 0.0 0.00 0.00 0.00 99 1015.5
20260905080526 22 91 0.0 0.0 0.00 0.00 0.00 99 1015.9
20260905080022 22 91 0.0 0.0 0.00 0.00 0.00 99 1015.8
20260905075515 22 90 0.0 0.0 0.00 0.00 0.00 99 1016.1
20260905075014 22 91 0.0 0.0 0.00 0.00 0.00 99 1015.6
20260905074509 22 89 0.0 0.0 0.00 0.00 0.00 99 1015.8
20260905074005 22 89 0.0 0.0 0.00 0.00 0.00 99 1015.8
20260905073500 22 88 0.0 0.0 0.00 0.00 0.00 99 1015.6
20260905072955 22 89 0.0 0.0 0.00 0.00 0.00 99 1015.9
20260905072450 22 92 0.0 0.0 0.00 0.00 0.00 99 1015.7
20260905071945 22 92 0.0 0.0 0.00 0.00 0.00 99 1015.8
20260905071442 22 92 0.0 0.0 0.00 0.00 0.00 99 1015.9
20260905070941 22 90 0.0 0.0 0.00 0.00 0.00 99 1015.9
20260905070438 22 90 0.0 0.0 0.00 0.00 0.00 99 1015.7
20260905065937 22 92 0.0 0.0 0.00 0.00 0.00 99 1015.8
20260905065435 22 96 0.0 0.0 0.00 0.00 0.00 99 1015.6
20260905064931 22 92 0.0 0.0 0.00 0.00 0.00 99 1015.7
20260905064426 22 92 0.0 0.0 0.00 0.00 0.00 99 1015.8
20260905063926 22 92 0.0 0.0 0.00 0.00 0.00 99 1015.8
20260905063421 22 91 0.0 0.0 0.00 0.00 0.00 99 1016.1
20260905062918 22 91 0.0 0.0 0.00 0.00 0.00 99 1016.1
20260905062418 22 91 0.0 0.0 0.00 0.00 0.00 99 1016.2
20260905061913 22 88 0.0 0.0 0.00 0.00 0.00 99 1016.3
20260905061412 22 88 0.0 0.0 0.00 0.00 0.00 99 1016.3
20260905060912 22 101 0.0 0.0 0.00 0.00 0.00 99 1016.3
20260905060409 22 89 0.0 0.0 0.00 0.00 0.00 99 1016.4
20260905055908 22 88 0.0 0.0 0.00 0.00 0.00 99 1016.4
20260905055403 22 91 0.0 0.0 0.00 0.00 0.00 99 1016.5
20260905054902 22 89 0.0 0.0 0.00 0.00 0.00 99 1016.4
20260905054359 22 91 0.0 0.0 0.00 0.00 0.00 99 1016.3
20260905053858 22 91 0.0 0.0 0.00 0.00 0.00 99 1016.6
20260905053353 22 93 0.0 0.0 0.00 0.00 0.00 99 1016.5
20260905052848 23 93 0.0 0.0 0.00 0.00 0.00 99 1016.5
20260905052347 23 102 0.0 0.0 0.00 0.00 0.00 99 1016.4
20260905051847 23 93 0.0 0.0 0.00 0.00 0.00 99 1016.4
20260905051343 23 93 0.0 0.0 0.00 0.00 0.00 99 1016.5
20260905050840 23 89 0.0 0.0 0.00 0.00 0.00 99 1016.4
20260905050336 23 89 0.0 0.0 0.00 0.00 0.00 99 1016.4
20260905045831 23 91 0.0 0.0 0.00 0.00 0.00 99 1016.5
20260905045326 23 91 0.0 0.0 0.00 0.00 0.00 99 1016.4
20260905044822 23 91 0.0 0.0 0.00 0.00 0.00 99 1016.4
20260905044317 23 93 0.0 0.0 0.00 0.00 0.00 99 1016.5
20260905043815 23 92 0.0 0.0 0.00 0.00 0.00 99 1016.5
20260905043310 23 82 0.0 0.0 0.00 0.00 0.00 99 1016.4
20260905042811 23 100 0.0 0.0 0.00 0.00 0.00 99 1016.6
20260905042310 23 91 0.0 0.0 0.00 0.00 0.00 99 1016.5
20260905041805 23 90 0.0 0.0 0.00 0.00 0.00 99 1016.7
20260905041301 23 90 0.0 0.0 0.00 0.00 0.00 99 1016.7
20260905040756 23 94 0.0 0.0 0.00 0.00 0.00 99 1016.4